Regional Weather Roundup
Issued by NWS Northern Indiana

Home | Current Version | Previous Version | Graphics & Text | Print | Product List | Glossary On
Versions: 1 2 3 4 5 6 7 8 9 10 11 12 13 14 15 16 17 18 19 20 21 22 23 24 25 26 27 28 29 30 31 32 33 34 35 36 37 38 39 40 41 42 43 44 45 46 47 48 49 50
000
ASUS43 KIWX 090400
RWRIWX

KIWX WEATHER ROUNDUP
NATIONAL WEATHER SERVICE NORTHERN INDIANA
1100 PM EST MON FEB 08 2016

NOTE: "FAIR" INDICATES FEW OR NO CLOUDS BELOW 12,000 FEET WITH NO
SIGNIFICANT WEATHER AND/OR OBSTRUCTIONS TO VISIBILITY.

* THESE STATIONS ARE NOT UNDER NWS QUALITY CONTROL. THEY ALSO MAY NOT
  REPORT WEATHER SUCH AS PRECIPITATION OR FOG.

INZ001>027-090500-
NORTHERN INDIANA

CITY           SKY/WX    TMP DP  RH WIND       PRES   REMARKS
GARY*          CLOUDY    28  19  69 W17       29.74S WCI  16
SOUTH BEND     CLOUDY    26  24  92 W10       29.69S WCI  16
GOSHEN         LGT SNOW  27  24  89 W12       29.67F FOG     WCI  17
ANGOLA*        CLOUDY    28  27  93 W7        29.63F WCI  21
FORT WAYNE     CLOUDY    28  23  81 W17       29.68F WCI  16
PERU/GRISSOM   LGT SNOW  25  21  86 W13       29.70S FOG     WCI  13

$$
INZ028>050-090500-
CENTRAL INDIANA

CITY           SKY/WX    TMP DP  RH WIND       PRES   REMARKS
LAFAYETTE      CLOUDY    22  18  85 W16       29.76F WCI   8
KOKOMO*        CLOUDY    25  19  80 W18       29.71F WCI  11
MUNCIE*        FLURRIES  25  19  78 W15       29.71S WCI  13
INDIANAPOLIS   FLURRIES  22  16  78 W12       29.75F WCI  10

$$
MIZ043>046-050>051-056>058-064>065-071>073-077>080-090500-
SOUTHWEST LOWER MICHIGAN

CITY           SKY/WX    TMP DP  RH WIND       PRES   REMARKS
BATTLE CREEK   CLOUDY    30  27  88 W12       29.61F WCI  20
BENTON HARBOR  LGT SNOW  30  26  85 W18       29.67F FOG     WCI  18
COLDWATER*     LGT SNOW  29  29  97 W13       29.62F WCI  19
HILLSDALE*     CLOUDY    30  28  91 W16       29.59F WCI  18
HOLLAND        CLOUDY    32  30  92 CALM      29.61F
GRAND RAPIDS   CLOUDY    33  31  92 W7        29.60F FOG     WCI  27
KALAMAZOO      CLOUDY    30  26  85 W8        29.63F WCI  22
STURGIS*       FLURRIES  28  25  88 W9        29.63F WCI  20
THREE RIVERS*  FLURRIES  30  27  89 W9        29.65F WCI  21

$$
OHZ001>008-015>018-024>025-090500-
NORTHWEST OHIO

CITY           SKY/WX    TMP DP  RH WIND       PRES   REMARKS
DEFIANCE       CLOUDY    32  26  78 W6G18     29.64F WCI  26
FINDLAY        CLOUDY    33  28  81 W13       29.62S WCI  24
TOLEDO EXPRESS CLOUDY    32  27  81 W12       29.61F WCI  23
TOLEDO METCALF CLOUDY    33  27  78 W12       29.62S WCI  24
LIMA           CLOUDY    29  27  92 W17       29.64S WCI  17

$$
AND FOR LAKE MICHIGAN COASTAL AND OPEN LAKE BUOY OBSERVATIONS

STATION/POSITION TEMP    WIND        PRES    VSBY  WAVE
                 AIR SEA DIR/SP/G                  HT/PER
                 (F)     (DEG/KT/KT) (MB)    (MI)  (FT/S)
CALUMET HARBOR    26     280/  8/ 12 1006.4F
MICHIGAN CITY     26     270/ 17/ 20   N/A
BURNS HARBOR      28     280/ 14/ 17 1007.1S
SAINT JOSEPH      31     270/ 13/ 17 1006.4R

$$
&&



USA.gov is the U.S. government's official web portal to all federal, state and local government web resources and services.